Weather History for KTHV - March, 2013

Change the Weather History Date:

Saturday, March 23, 2013

  Actual Average (KMDT) Record (KMDT)
Temperature  
Mean Temperature 36 °F 44 °F  
Max Temperature 48 °F 53 °F 79 °F (2012)
Min Temperature 25 °F 35 °F 14 °F (1934)
Degree Days  
Heating Degree Days 30 21  
Month to date heating degree days 567  
Since 1 July heating degree days 4555  
Cooling Degree Days 0 0  
Month to date cooling degree days 0  
Year to date cooling degree days 0  
Moisture  
Dew Point 19 °F    
Average Humidity 53    
Maximum Humidity 75    
Minimum Humidity 34    
Precipitation  
Precipitation 0.00 in 0.11 in 1.92 in (1903)
Month to date precipitation 2.45  
Year to date precipitation 7.72  
Snow  
Snow 0.00 in 0.10 in 3.00 in (1896)
Month to date snowfall 4.5  
Since 1 July snowfall 29.5  
Snow Depth -    
Sea Level Pressure  
Sea Level Pressure 29.98 in    
Wind  
Wind Speed 7 mph (WNW)    
Max Wind Speed 16 mph    
Max Gust Speed 23 mph    
Visibility 10 miles    
Events      
T = Trace of Precipitation, MM = Missing Value Source: NWS Daily Summary

Daily Weather History Graph

Daily Weather History Graph

Search for Another Location

Airport or City:

Trip Planner

Search our weather history database for the weather conditions in past years. The results will help you decide how hot, cold, wet, or windy it might be!

Date:

Astronomy

Mar. 23, 2013 Rise Set
Actual Time 7:05 AM EDT 7:22 PM EDT
Civil Twilight 6:38 AM EDT 7:49 PM EDT
Nautical Twilight 6:07 AM EDT 8:21 PM EDT
Astronomical Twilight 5:34 AM EDT 8:54 PM EDT
Moon 3:47 PM EDT (3/23) 4:40 AM EDT (3/23)
Length of Visible Light 13h 11m
Length of Day
12h 17m
Waxing Gibbous, 85% of the Moon is Illuminated
Mar 23
Waxing Gibbous
Mar 27
Full
Apr 3
Last Quarter
Apr 10
New
Apr 18
First Quarter

Hourly Weather History & Observations

Time (EDT) Temp. Windchill Dew Point Humidity Pressure Visibility Wind Dir Wind Speed Gust Speed Precip Events Conditions
12:53 AM 25.0 °F 20.7 °F 18.0 °F 75% 30.01 in 10.0 mi WNW 3.5 mph - N/A   Clear
1:53 AM 27.0 °F 23.0 °F 17.1 °F 66% 30.00 in 10.0 mi West 3.5 mph - N/A   Clear
3:53 AM 30.0 °F 26.5 °F 18.0 °F 61% 29.97 in 10.0 mi WNW 3.5 mph - N/A   Clear
4:53 AM 30.0 °F 23.2 °F 18.0 °F 61% 29.98 in 10.0 mi West 6.9 mph - N/A   Clear
5:53 AM 28.9 °F 23.9 °F 19.0 °F 67% 29.98 in 10.0 mi West 4.6 mph - N/A   Scattered Clouds
6:53 AM 27.0 °F 23.0 °F 18.0 °F 69% 29.99 in 10.0 mi West 3.5 mph - N/A   Scattered Clouds
7:53 AM 30.9 °F 25.2 °F 21.0 °F 67% 30.00 in 10.0 mi WNW 5.8 mph - N/A   Mostly Cloudy
8:53 AM 34.0 °F 28.0 °F 21.0 °F 59% 30.00 in 10.0 mi West 6.9 mph - N/A   Overcast
9:53 AM 36.0 °F 27.5 °F 21.0 °F 55% 30.01 in 10.0 mi WNW 12.7 mph - N/A   Overcast
10:53 AM 37.0 °F 28.5 °F 19.9 °F 50% 30.02 in 10.0 mi WNW 13.8 mph - N/A   Overcast
11:53 AM 39.9 °F 32.1 °F 19.9 °F 45% 30.01 in 10.0 mi NW 13.8 mph 21.9 mph N/A   Mostly Cloudy
12:53 PM 42.1 °F 34.9 °F 19.9 °F 41% 29.98 in 10.0 mi NW 13.8 mph 23.0 mph N/A   Mostly Cloudy
1:53 PM 44.1 °F 37.4 °F 21.0 °F 40% 29.96 in 10.0 mi NW 13.8 mph 19.6 mph N/A   Partly Cloudy
2:53 PM 44.1 °F 37.4 °F 19.9 °F 38% 29.94 in 10.0 mi WNW 13.8 mph 20.7 mph N/A   Mostly Cloudy
3:53 PM 46.0 °F 39.3 °F 19.9 °F 35% 29.93 in 10.0 mi WNW 16.1 mph 20.7 mph N/A   Partly Cloudy
4:53 PM 46.0 °F 39.9 °F 19.0 °F 34% 29.92 in 10.0 mi WNW 13.8 mph 21.9 mph N/A   Clear
5:53 PM 46.0 °F 40.6 °F 21.0 °F 37% 29.94 in 10.0 mi North 11.5 mph - N/A   Partly Cloudy
6:53 PM 42.1 °F 35.7 °F 19.9 °F 41% 29.96 in 10.0 mi NNW 11.5 mph 20.7 mph N/A   Clear
7:53 PM 37.9 °F 32.1 °F 19.9 °F 48% 29.98 in 10.0 mi NNW 8.1 mph - N/A   Clear
8:53 PM 37.0 °F 29.8 °F 19.0 °F 48% 30.01 in 10.0 mi NW 10.4 mph - N/A   Clear
9:53 PM 35.1 °F 28.6 °F 19.0 °F 52% 30.01 in 10.0 mi NNW 8.1 mph - N/A   Clear
10:53 PM 33.1 °F 26.1 °F 19.0 °F 56% 30.01 in 10.0 mi WNW 8.1 mph - N/A   Clear
11:53 PM 28.9 °F 25.2 °F 19.9 °F 69% 30.02 in 10.0 mi West 3.5 mph - N/A   Clear